Other Public Products
Issued by NWS Charleston, SC

Current Version | Previous Version | Text Only | Print | Product List | Glossary Off
Versions: 1 2 3 4 5 6 7 8 9 10 11 12 13 14 15 16 17 18 19 20 21 22 23 24 25 26 27 28 29 30 31 32 33 34 35 36 37 38 39 40 41 42 43 44 45 46 47 48 49 50
686 FPUS82 KCHS 271712 OPUCHS TEST...KCHS/KSAV Gateway Observations...TEST National Weather Service Charleston SC 100 PM EDT MON MAR 27 2017 NOTE: "fair" indicates few or no clouds below 12,000 feet with no significant weather and/or obstructions to visibility. SCZ050-WAZ558-NCZ071-TXZ119-213-PAZ071-DCZ001-FLZ074-172-MI076- NYZ176-178-MAZ016-IL014-TNZ027-NJZ106-GAZ044-MD014-271800- ...Gateway Observations for Charleston International... CITY SKY/WX TMP DP RH WIND PRES REMARKS Chas Airport PTSUNNY 77 57 50 S8 30.13F Seattle CLOUDY 47 42 83 SW13 30.06R Charlotte MOSUNNY 71 58 63 S10 30.11F Dallas DFW PTSUNNY 61 52 72 NW9 29.94R Dallas Love PTSUNNY 62 52 69 N12 29.95R Philladelphia CLOUDY 51 49 92 S3 30.06F FOG Wash National PTSUNNY 60 55 83 S7 30.05F Baltimore CLOUDY 56 53 90 SW5 30.05F Miami PTSUNNY 81 62 52 E13 30.08F Detroit CLOUDY 58 50 75 W10 29.95S Newark CLOUDY 50 45 83 CALM 30.04F Laguardia CLOUDY 44 41 89 NE8 30.05F J F K CLOUDY 49 47 93 CALM 30.06F Boston Logan RAIN 41 41 100 N6 30.08F FOG Ft. Lauderdale MOSUNNY 80 62 54 E12 30.08F Chicago O`Hare CLOUDY 48 44 86 E7 29.94S FOG Chicago Midway CLOUDY 46 44 93 E8 29.95F FOG Houston Bush PTSUNNY 81 67 62 S13G20 29.92S Houston Hobby MOSUNNY 81 67 62 S14G20 29.91F Nashville CLOUDY 74 60 61 SW15 29.96F Atlanta CLOUDY 74 59 59 SW10 30.08F $$ GAZ044-118-TXZ119-213-NCZ071-DCZ001-MDZ014-506-PAZ021-071-NJZ106- NYZ176-178-MAZ106-OHZ011-021-055-MIZ076-KYZ091-ILZ014-INZ047- MNZ060-ONZ431-271800- ...Gateway Observations for Savannah International... CITY SKY/WX TMP DP RH WIND PRES REMARKS Savannah Arpt PTSUNNY 81 58 45 S8 30.12F Atlanta CLOUDY 74 59 59 SW10 30.08F Charlotte MOSUNNY 71 58 63 S10 30.11F Dallas DFW PTSUNNY 61 52 72 NW9 29.94R Houston Bush PTSUNNY 81 67 62 S13G20 29.92S Wash National PTSUNNY 60 55 83 S7 30.05F Wash Dulles MOSUNNY 62 54 74 W6 30.03F Baltimore CLOUDY 56 53 90 SW5 30.05F Philadelphia CLOUDY 51 49 92 S3 30.06F FOG Newark CLOUDY 50 45 83 CALM 30.04F Laguardia CLOUDY 44 41 89 NE8 30.05F J F K CLOUDY 49 47 93 CALM 30.06F Boston RAIN 41 41 100 N6 30.08F FOG Pittsburg PTSUNNY 61 50 67 W9 29.99S Akron CLOUDY 59 47 64 SW15G21 29.98S Cleveland CLOUDY 58 50 75 SW12 29.99F Cincinnati CLOUDY 61 51 70 SE8 29.98F Columbus MOSUNNY 62 51 66 SW3 29.99F Detroit CLOUDY 58 50 75 W10 29.95S Chicago O`Hare CLOUDY 48 44 86 E7 29.94S FOG Minneapolis MOSUNNY 50 34 54 NE3 29.98S Indianapolis PTSUNNY 63 51 65 S10 29.95S Toronto Canada CLOUDY 54 50 87 S5 29.88S $$

USA.gov is the U.S. government's official web portal to all federal, state and local government web resources and services.